FDX91 KMSP-KICT

Flight info

Callsign FDX91
Flight time 1h 21m
Altitude 34000
Route ORSKY3 ONTIJ CASSO ICT
Aircraft B752/M-SDE2E3FGHIJ3J4J7RWXY/LB1

Departure

Time 2026-04-26 16:51
Airport Minneapolis–Saint Paul International Airport / Wold–Chamberlain Field (KMSP)

Arrival

Time 2026-04-26 18:12
Airport Wichita Dwight D. Eisenhower National Airport (KICT)
Time Latitude Longitude Altitude Speed Heading
2026-04-26 16:36 44.88163 -93.23136 833 ft 0 kts 32°
2026-04-26 16:41 44.88160 -93.23139 833 ft 2 kts 32°
2026-04-26 16:41 44.88148 -93.23150 832 ft 2 kts 32°
2026-04-26 16:41 44.88135 -93.23161 832 ft 2 kts 32°
2026-04-26 16:41 44.88127 -93.23168 832 ft 2 kts 31°
2026-04-26 16:42 44.88113 -93.23174 832 ft 2 kts
2026-04-26 16:42 44.88098 -93.23172 831 ft 2 kts 341°
2026-04-26 16:42 44.88085 -93.23162 831 ft 2 kts 319°
2026-04-26 16:42 44.88078 -93.23151 831 ft 0 kts 303°
2026-04-26 16:43 44.88074 -93.23144 831 ft 0 kts 301°
2026-04-26 16:46 44.88083 -93.23164 831 ft 5 kts 301°
2026-04-26 16:46 44.88110 -93.23227 833 ft 8 kts 301°
2026-04-26 16:46 44.88136 -93.23286 834 ft 5 kts 302°
2026-04-26 16:46 44.88153 -93.23325 836 ft 4 kts 302°
2026-04-26 16:47 44.88174 -93.23373 837 ft 7 kts 302°
2026-04-26 16:47 44.88201 -93.23435 839 ft 7 kts 301°
2026-04-26 16:47 44.88227 -93.23495 840 ft 7 kts 301°
2026-04-26 16:47 44.88255 -93.23562 841 ft 8 kts 301°
2026-04-26 16:48 44.88290 -93.23642 842 ft 10 kts 302°
2026-04-26 16:48 44.88320 -93.23711 842 ft 7 kts 301°
2026-04-26 16:48 44.88366 -93.23760 842 ft 11 kts
2026-04-26 16:48 44.88451 -93.23693 842 ft 15 kts 34°
2026-04-26 16:49 44.88539 -93.23609 842 ft 15 kts 34°
2026-04-26 16:49 44.88613 -93.23539 842 ft 9 kts 34°
2026-04-26 16:49 44.88660 -93.23495 843 ft 9 kts 33°
2026-04-26 16:49 44.88741 -93.23412 843 ft 9 kts 59°
2026-04-26 16:50 44.88729 -93.23295 843 ft 29 kts 121°
2026-04-26 16:50 44.88480 -93.22717 836 ft 105 kts 121°
2026-04-26 16:50 44.87991 -93.21590 828 ft 159 kts 122°
2026-04-26 16:50 44.87327 -93.20091 1148 ft 199 kts 119°
2026-04-26 16:51 44.86538 -93.18347 1827 ft 229 kts 120°
2026-04-26 16:51 44.85645 -93.16506 2649 ft 235 kts 129°
2026-04-26 16:51 44.84357 -93.15064 3434 ft 240 kts 156°
2026-04-26 16:51 44.82789 -93.14600 4314 ft 241 kts 182°
2026-04-26 16:52 44.81104 -93.15219 4752 ft 260 kts 212°
2026-04-26 16:52 44.80207 -93.16266 5484 ft 253 kts 225°
2026-04-26 16:52 44.78750 -93.18584 6943 ft 240 kts 232°
2026-04-26 16:52 44.77803 -93.20625 7300 ft 261 kts 236°
2026-04-26 16:53 44.76810 -93.22849 7933 ft 269 kts 236°
2026-04-26 16:53 44.75822 -93.25043 8763 ft 269 kts 233°
2026-04-26 16:53 44.74483 -93.26886 9433 ft 271 kts 214°
2026-04-26 16:53 44.73002 -93.28464 10235 ft 272 kts 218°
2026-04-26 16:54 44.71487 -93.30162 10593 ft 288 kts 217°
2026-04-26 16:54 44.69859 -93.31966 10879 ft 307 kts 218°
2026-04-26 16:54 44.68122 -93.33890 11127 ft 325 kts 218°
2026-04-26 16:54 44.66320 -93.35881 11669 ft 333 kts 218°
2026-04-26 16:55 44.64508 -93.37880 12463 ft 333 kts 218°
2026-04-26 16:55 44.62703 -93.39870 13084 ft 337 kts 218°
2026-04-26 16:55 44.60866 -93.41893 13807 ft 338 kts 218°
2026-04-26 16:55 44.58990 -93.43957 14429 ft 342 kts 218°
2026-04-26 16:56 44.55236 -93.48078 15612 ft 349 kts 218°
2026-04-26 16:56 44.53318 -93.50187 16212 ft 353 kts 218°
2026-04-26 16:56 44.51397 -93.52290 16807 ft 356 kts 219°
2026-04-26 16:57 44.49430 -93.54445 17342 ft 360 kts 219°
2026-04-26 16:57 44.47472 -93.56587 17957 ft 361 kts 219°
2026-04-26 16:57 44.43488 -93.60941 19060 ft 367 kts 219°
2026-04-26 16:58 44.41366 -93.63017 19541 ft 372 kts 212°
2026-04-26 16:58 44.39895 -93.64195 19892 ft 373 kts 212°
2026-04-26 16:58 44.34598 -93.68496 21020 ft 381 kts 212°
2026-04-26 16:59 44.32315 -93.70339 21554 ft 383 kts 213°
2026-04-26 16:59 44.27695 -93.74060 22518 ft 387 kts 213°
2026-04-26 17:00 44.22984 -93.77845 23414 ft 392 kts 213°
2026-04-26 17:00 44.18251 -93.81640 24292 ft 397 kts 213°
2026-04-26 17:00 44.15868 -93.83548 24717 ft 399 kts 213°
2026-04-26 17:01 44.13448 -93.85482 25224 ft 399 kts 213°
2026-04-26 17:01 44.11025 -93.87418 25581 ft 403 kts 214°
2026-04-26 17:01 44.08613 -93.89342 26036 ft 404 kts 213°
2026-04-26 17:01 44.06176 -93.91287 26337 ft 408 kts 214°
2026-04-26 17:02 44.03714 -93.93248 26759 ft 409 kts 214°
2026-04-26 17:02 44.01257 -93.95202 27151 ft 411 kts 214°
2026-04-26 17:02 43.98767 -93.97182 27509 ft 413 kts 214°
2026-04-26 17:02 43.96261 -93.99172 27883 ft 414 kts 214°
2026-04-26 17:03 43.93775 -94.01144 28262 ft 415 kts 214°
2026-04-26 17:03 43.91275 -94.03127 28584 ft 417 kts 214°
2026-04-26 17:03 43.88746 -94.05129 28923 ft 418 kts 214°
2026-04-26 17:03 43.86237 -94.07114 29244 ft 420 kts 214°
2026-04-26 17:04 43.83707 -94.09113 29604 ft 421 kts 214°
2026-04-26 17:04 43.81171 -94.11116 29917 ft 422 kts 214°
2026-04-26 17:04 43.78616 -94.13131 30168 ft 425 kts 214°
2026-04-26 17:04 43.76047 -94.15157 30513 ft 425 kts 214°
2026-04-26 17:05 43.73488 -94.17170 30824 ft 426 kts 214°
2026-04-26 17:05 43.70908 -94.19199 31074 ft 428 kts 214°
2026-04-26 17:05 43.68301 -94.21247 31358 ft 429 kts 214°
2026-04-26 17:05 43.65714 -94.23278 31550 ft 432 kts 214°
2026-04-26 17:06 43.63127 -94.25304 31948 ft 430 kts 214°
2026-04-26 17:06 43.60537 -94.27331 32273 ft 430 kts 214°
2026-04-26 17:06 43.57922 -94.29376 32702 ft 427 kts 214°
2026-04-26 17:06 43.55352 -94.31384 33023 ft 426 kts 214°
2026-04-26 17:07 43.52795 -94.33380 33338 ft 425 kts 214°
2026-04-26 17:07 43.50230 -94.35381 33694 ft 423 kts 214°
2026-04-26 17:07 43.47681 -94.37367 33960 ft 421 kts 214°
2026-04-26 17:07 43.45161 -94.39327 33994 ft 419 kts 214°
2026-04-26 17:08 43.40104 -94.43259 33989 ft 420 kts 214°
2026-04-26 17:08 43.35018 -94.47206 33998 ft 420 kts 214°
2026-04-26 17:09 43.30764 -94.50485 33984 ft 420 kts 212°
2026-04-26 17:09 43.24387 -94.54044 33977 ft 428 kts 206°
2026-04-26 17:10 43.18849 -94.56956 33965 ft 428 kts 206°
2026-04-26 17:10 43.13300 -94.59853 33969 ft 427 kts 206°
2026-04-26 17:11 43.07783 -94.62723 33957 ft 427 kts 206°
2026-04-26 17:11 43.02212 -94.65611 33963 ft 427 kts 205°
2026-04-26 17:12 42.93906 -94.69907 33961 ft 428 kts 205°
2026-04-26 17:13 42.85564 -94.74206 33958 ft 429 kts 205°
2026-04-26 17:14 42.77199 -94.78507 33954 ft 429 kts 205°
2026-04-26 17:14 42.68855 -94.82783 33957 ft 429 kts 205°
2026-04-26 17:15 42.60457 -94.87075 33949 ft 428 kts 205°
2026-04-26 17:16 42.54906 -94.89906 33950 ft 429 kts 205°
2026-04-26 17:16 42.49311 -94.92752 33941 ft 429 kts 205°
2026-04-26 17:17 42.43747 -94.95578 33942 ft 429 kts 205°
2026-04-26 17:17 42.38157 -94.98412 33940 ft 430 kts 205°
2026-04-26 17:18 42.32551 -95.01248 33932 ft 431 kts 205°
2026-04-26 17:18 42.26931 -95.04086 33925 ft 431 kts 205°
2026-04-26 17:19 42.18529 -95.08319 33919 ft 431 kts 205°
2026-04-26 17:19 42.12898 -95.11149 33907 ft 431 kts 205°
2026-04-26 17:20 42.08223 -95.13494 33904 ft 431 kts 205°
2026-04-26 17:20 42.01684 -95.16769 33922 ft 430 kts 205°
2026-04-26 17:21 41.96073 -95.19572 33921 ft 430 kts 205°
2026-04-26 17:21 41.90465 -95.22370 33933 ft 431 kts 205°
2026-04-26 17:22 41.84815 -95.25182 33914 ft 431 kts 205°
2026-04-26 17:22 41.79212 -95.27968 33916 ft 431 kts 205°
2026-04-26 17:23 41.73590 -95.30756 33907 ft 431 kts 205°
2026-04-26 17:23 41.67967 -95.33540 33914 ft 431 kts 205°
2026-04-26 17:24 41.62352 -95.36314 33911 ft 431 kts 205°
2026-04-26 17:24 41.56745 -95.39080 33907 ft 430 kts 205°
2026-04-26 17:25 41.51115 -95.41852 33908 ft 431 kts 205°
2026-04-26 17:25 41.45477 -95.44622 33901 ft 430 kts 205°
2026-04-26 17:26 41.39874 -95.47371 33897 ft 430 kts 205°
2026-04-26 17:26 41.34248 -95.50126 33894 ft 430 kts 205°
2026-04-26 17:27 41.28640 -95.52866 33881 ft 430 kts 205°
2026-04-26 17:27 41.23007 -95.55614 33891 ft 430 kts 205°
2026-04-26 17:28 41.17413 -95.58337 33890 ft 431 kts 205°
2026-04-26 17:28 41.11768 -95.61080 33896 ft 431 kts 206°
2026-04-26 17:29 41.07056 -95.63367 33883 ft 431 kts 206°
2026-04-26 17:29 41.00492 -95.66546 33885 ft 432 kts 205°
2026-04-26 17:30 40.94846 -95.69275 33894 ft 432 kts 205°
2026-04-26 17:30 40.89183 -95.72007 33886 ft 431 kts 205°
2026-04-26 17:31 40.83516 -95.74737 33890 ft 431 kts 205°
2026-04-26 17:31 40.77893 -95.77439 33881 ft 429 kts 205°
2026-04-26 17:32 40.72259 -95.80143 33885 ft 432 kts 205°
2026-04-26 17:32 40.66608 -95.82849 33887 ft 431 kts 205°
2026-04-26 17:33 40.60990 -95.85535 33892 ft 430 kts 205°
2026-04-26 17:34 40.52502 -95.89584 33885 ft 431 kts 205°
2026-04-26 17:34 40.46851 -95.92275 33876 ft 430 kts 205°
2026-04-26 17:35 40.41243 -95.94939 33867 ft 430 kts 205°
2026-04-26 17:35 40.35608 -95.97611 33864 ft 430 kts 205°
2026-04-26 17:36 40.29998 -96.00267 33866 ft 428 kts 205°
2026-04-26 17:36 40.24392 -96.02917 33867 ft 428 kts 205°
2026-04-26 17:37 40.18776 -96.05566 33866 ft 428 kts 206°
2026-04-26 17:37 40.13166 -96.08209 33865 ft 429 kts 205°
2026-04-26 17:38 40.04751 -96.12164 33868 ft 429 kts 206°
2026-04-26 17:38 39.99130 -96.14799 33871 ft 430 kts 205°
2026-04-26 17:39 39.93518 -96.17424 33859 ft 428 kts 205°
2026-04-26 17:39 39.87883 -96.20058 33859 ft 429 kts 205°
2026-04-26 17:40 39.83202 -96.22241 33845 ft 426 kts 205°
2026-04-26 17:40 39.76689 -96.25275 33855 ft 426 kts 205°
2026-04-26 17:41 39.71084 -96.27881 33847 ft 427 kts 205°
2026-04-26 17:41 39.65511 -96.30466 33850 ft 427 kts 205°
2026-04-26 17:42 39.59882 -96.33073 33848 ft 426 kts 205°
2026-04-26 17:42 39.54302 -96.35654 33842 ft 425 kts 205°
2026-04-26 17:43 39.48769 -96.38205 33825 ft 414 kts 205°
2026-04-26 17:43 39.46098 -96.39431 33714 ft 397 kts 206°
2026-04-26 17:43 39.43530 -96.40614 33207 ft 392 kts 206°
2026-04-26 17:44 39.40962 -96.41802 32280 ft 394 kts 205°
2026-04-26 17:44 39.38428 -96.42967 31756 ft 386 kts 205°
2026-04-26 17:44 39.35891 -96.44137 31246 ft 391 kts 205°
2026-04-26 17:44 39.33276 -96.45343 30738 ft 404 kts 205°
2026-04-26 17:45 39.30605 -96.46571 30220 ft 413 kts 205°
2026-04-26 17:45 39.27849 -96.47832 29679 ft 414 kts 205°
2026-04-26 17:45 39.25133 -96.49075 29144 ft 412 kts 204°
2026-04-26 17:45 39.22467 -96.50293 28623 ft 407 kts 204°
2026-04-26 17:46 39.19801 -96.51511 28107 ft 403 kts 204°
2026-04-26 17:46 39.17175 -96.52711 27601 ft 399 kts 204°
2026-04-26 17:46 39.14551 -96.53909 27095 ft 397 kts 204°
2026-04-26 17:46 39.11958 -96.55093 26605 ft 395 kts 204°
2026-04-26 17:47 39.09395 -96.56261 26116 ft 392 kts 204°
2026-04-26 17:47 39.07670 -96.57047 25806 ft 391 kts 204°
2026-04-26 17:47 39.04256 -96.58603 25165 ft 388 kts 204°
2026-04-26 17:47 39.01741 -96.59746 24687 ft 384 kts 204°
2026-04-26 17:48 38.99239 -96.60883 24223 ft 382 kts 204°
2026-04-26 17:48 38.96731 -96.62024 23758 ft 381 kts 204°
2026-04-26 17:48 38.94228 -96.63158 23296 ft 379 kts 204°
2026-04-26 17:48 38.91735 -96.64290 22851 ft 377 kts 204°
2026-04-26 17:49 38.89280 -96.65402 22428 ft 374 kts 203°
2026-04-26 17:49 38.86836 -96.66509 22016 ft 371 kts 203°
2026-04-26 17:49 38.84411 -96.67606 21603 ft 370 kts 203°
2026-04-26 17:49 38.81978 -96.68707 21194 ft 370 kts 203°
2026-04-26 17:50 38.79552 -96.69804 20778 ft 368 kts 203°
2026-04-26 17:50 38.77150 -96.70888 20362 ft 365 kts 203°
2026-04-26 17:50 38.74732 -96.71980 19944 ft 363 kts 203°
2026-04-26 17:50 38.72364 -96.73047 19529 ft 361 kts 203°
2026-04-26 17:51 38.69982 -96.74120 19114 ft 358 kts 203°
2026-04-26 17:51 38.67626 -96.75182 18702 ft 356 kts 203°
2026-04-26 17:51 38.65288 -96.76233 18292 ft 352 kts 203°
2026-04-26 17:51 38.62996 -96.77264 17883 ft 349 kts 203°
2026-04-26 17:52 38.60701 -96.78295 17480 ft 348 kts 202°
2026-04-26 17:52 38.58413 -96.79323 17076 ft 345 kts 202°
2026-04-26 17:52 38.56135 -96.80345 16670 ft 343 kts 202°
2026-04-26 17:52 38.53886 -96.81355 16263 ft 342 kts 202°
2026-04-26 17:53 38.51645 -96.82359 15950 ft 336 kts 202°
2026-04-26 17:53 38.49513 -96.83309 15775 ft 316 kts 202°
2026-04-26 17:53 38.47481 -96.84217 15393 ft 296 kts 202°
2026-04-26 17:54 38.43701 -96.85912 14673 ft 292 kts 202°
2026-04-26 17:54 38.41775 -96.86775 14320 ft 296 kts 202°
2026-04-26 17:54 38.39833 -96.87642 13951 ft 294 kts 202°
2026-04-26 17:54 38.37917 -96.88497 13588 ft 291 kts 202°
2026-04-26 17:55 38.36004 -96.89350 13226 ft 290 kts 202°
2026-04-26 17:55 38.34098 -96.90201 12872 ft 289 kts 201°
2026-04-26 17:55 38.32194 -96.91049 12518 ft 287 kts 201°
2026-04-26 17:55 38.30316 -96.91885 12169 ft 285 kts 201°
2026-04-26 17:56 38.28472 -96.92706 11831 ft 283 kts 201°
2026-04-26 17:56 38.24757 -96.94359 11147 ft 281 kts 200°
2026-04-26 17:57 38.21103 -96.96111 10473 ft 277 kts 212°
2026-04-26 17:57 38.19715 -96.97771 10237 ft 276 kts 237°
2026-04-26 17:57 38.18783 -96.99889 10129 ft 279 kts 240°
2026-04-26 17:57 38.17859 -97.02083 10033 ft 281 kts 240°
2026-04-26 17:58 38.15220 -97.08701 9658 ft 279 kts 241°
2026-04-26 17:59 38.13576 -97.12931 9479 ft 252 kts 238°
2026-04-26 17:59 38.12481 -97.14549 9442 ft 233 kts 212°
2026-04-26 17:59 38.11105 -97.15618 9238 ft 230 kts 210°
2026-04-26 17:59 38.09740 -97.16658 8955 ft 226 kts 210°
2026-04-26 18:00 38.08379 -97.17670 8650 ft 224 kts 209°
2026-04-26 18:00 38.07036 -97.18653 8355 ft 222 kts 209°
2026-04-26 18:00 38.05698 -97.19623 8080 ft 221 kts 208°
2026-04-26 18:00 38.04351 -97.20592 7802 ft 221 kts 208°
2026-04-26 18:01 38.03029 -97.21541 7511 ft 213 kts 208°
2026-04-26 18:01 38.01762 -97.22448 7232 ft 202 kts 207°
2026-04-26 18:01 38.00583 -97.23292 7054 ft 184 kts 207°
2026-04-26 18:01 37.99546 -97.24099 6828 ft 171 kts 219°
2026-04-26 18:02 37.99028 -97.25433 6624 ft 178 kts 261°
2026-04-26 18:02 37.99088 -97.26508 6532 ft 188 kts 272°
2026-04-26 18:02 37.99395 -97.28741 6273 ft 194 kts 273°
2026-04-26 18:02 37.99635 -97.30423 6093 ft 190 kts 273°
2026-04-26 18:03 37.99868 -97.32054 5953 ft 189 kts 272°
2026-04-26 18:03 38.00105 -97.33710 5832 ft 191 kts 273°
2026-04-26 18:03 38.00339 -97.35388 5717 ft 190 kts 272°
2026-04-26 18:03 38.00171 -97.36964 5603 ft 175 kts 233°
2026-04-26 18:04 37.99269 -97.37872 5560 ft 166 kts 191°
2026-04-26 18:04 37.98145 -97.37669 5507 ft 170 kts 150°
2026-04-26 18:04 37.97250 -97.36647 5462 ft 173 kts 138°
2026-04-26 18:05 37.95605 -97.34438 5269 ft 170 kts 138°
2026-04-26 18:05 37.94788 -97.33352 5180 ft 169 kts 141°
2026-04-26 18:05 37.93758 -97.32742 5102 ft 164 kts 173°
2026-04-26 18:05 37.92622 -97.32917 5025 ft 167 kts 194°
2026-04-26 18:06 37.91475 -97.33308 4889 ft 168 kts 191°
2026-04-26 18:06 37.90329 -97.33641 4727 ft 167 kts 190°
2026-04-26 18:06 37.89192 -97.33955 4562 ft 166 kts 189°
2026-04-26 18:06 37.88044 -97.34260 4383 ft 166 kts 189°
2026-04-26 18:07 37.86912 -97.34550 4199 ft 166 kts 188°
2026-04-26 18:07 37.85766 -97.34839 4003 ft 167 kts 188°
2026-04-26 18:07 37.84630 -97.35122 3794 ft 167 kts 188°
2026-04-26 18:07 37.83862 -97.35315 3651 ft 167 kts 189°
2026-04-26 18:08 37.82383 -97.35955 3497 ft 166 kts 196°
2026-04-26 18:08 37.81278 -97.36453 3452 ft 170 kts 196°
2026-04-26 18:08 37.80149 -97.36968 3389 ft 170 kts 196°
2026-04-26 18:08 37.79036 -97.37477 3321 ft 169 kts 196°
2026-04-26 18:09 37.77925 -97.37986 3252 ft 169 kts 195°
2026-04-26 18:09 37.76809 -97.38497 3186 ft 169 kts 196°
2026-04-26 18:09 37.75697 -97.39007 3116 ft 169 kts 196°
2026-04-26 18:09 37.74577 -97.39524 3010 ft 168 kts 196°
2026-04-26 18:10 37.73484 -97.40031 2784 ft 168 kts 197°
2026-04-26 18:10 37.72387 -97.40556 2635 ft 166 kts 197°
2026-04-26 18:10 37.71293 -97.41027 2422 ft 160 kts 194°
2026-04-26 18:10 37.70290 -97.41481 2126 ft 147 kts 198°
2026-04-26 18:11 37.69390 -97.41939 1914 ft 130 kts 197°
2026-04-26 18:11 37.68526 -97.42328 1713 ft 134 kts 194°
2026-04-26 18:11 37.67626 -97.42705 1621 ft 139 kts 198°
2026-04-26 18:11 37.66706 -97.43146 1472 ft 140 kts 194°
2026-04-26 18:12 37.65797 -97.43555 1337 ft 135 kts 196°
2026-04-26 18:12 37.65008 -97.43907 1330 ft 91 kts 201°
2026-04-26 18:12 37.64516 -97.44135 1320 ft 67 kts 200°
2026-04-26 18:12 37.64169 -97.44292 1313 ft 37 kts 198°
2026-04-26 18:13 37.64024 -97.44330 1311 ft 9 kts 147°
2026-04-26 18:13 37.63998 -97.44279 1311 ft 6 kts 107°
2026-04-26 18:13 37.64022 -97.44219 1312 ft 7 kts 28°
2026-04-26 18:13 37.64056 -97.44202 1312 ft 7 kts 21°
2026-04-26 18:14 37.64143 -97.44162 1313 ft 13 kts 19°
2026-04-26 18:14 37.64244 -97.44116 1315 ft 17 kts 20°
2026-04-26 18:14 37.64363 -97.44061 1317 ft 18 kts 20°
2026-04-26 18:14 37.64479 -97.44008 1319 ft 15 kts 20°
2026-04-26 18:15 37.64578 -97.43964 1321 ft 14 kts 19°
2026-04-26 18:15 37.64663 -97.43925 1323 ft 10 kts 21°
2026-04-26 18:15 37.64752 -97.43883 1324 ft 16 kts 20°
2026-04-26 18:15 37.64865 -97.43831 1327 ft 16 kts 21°
2026-04-26 18:16 37.64961 -97.43786 1328 ft 12 kts 20°
2026-04-26 18:16 37.65092 -97.43726 1330 ft 8 kts 20°
2026-04-26 18:16 37.65160 -97.43694 1330 ft 12 kts 20°
2026-04-26 18:17 37.65243 -97.43658 1331 ft 12 kts 19°
2026-04-26 18:17 37.65329 -97.43619 1331 ft 14 kts 20°
2026-04-26 18:17 37.65433 -97.43571 1331 ft 16 kts 21°
2026-04-26 18:17 37.65535 -97.43524 1332 ft 12 kts 20°
2026-04-26 18:18 37.65615 -97.43487 1332 ft 13 kts 20°
2026-04-26 18:18 37.65683 -97.43454 1332 ft 9 kts 32°
2026-04-26 18:18 37.65698 -97.43377 1330 ft 9 kts 90°
2026-04-26 18:18 37.65741 -97.43322 1329 ft 9 kts 20°
2026-04-26 18:19 37.65796 -97.43297 1329 ft 3 kts 25°
2026-04-26 18:19 37.65803 -97.43267 1329 ft 6 kts 95°
2026-04-26 18:19 37.65797 -97.43235 1329 ft 1 kts 108°
2026-04-26 18:19 37.65796 -97.43232 1329 ft 0 kts 109°